IT9LCP-2 Weather Reports


time (UTC)temp
F
wind
direction
speed
knots
gust
knots
rain 1hr
in
rain 24hr
in
rain mn
in
humidity
%
barometer
mb
20260906095116 91 22 5.2 7.8 0.00 0.00 0.00 47 1019.5
20260906094116 90 30 5.2 7.8 0.00 0.00 0.00 48 1019.6
20260906092117 90 13 5.2 7.0 0.00 0.00 0.00 43 1019.7
20260906091117 89 3 4.3 7.0 0.00 0.00 0.00 43 1019.8
20260906090116 90 18 6.1 7.8 0.00 0.00 0.00 42 1019.7
20260906084116 90 18 5.2 7.8 0.00 0.00 0.00 40 1019.9
20260906083117 90 8 5.2 7.0 0.00 0.00 0.00 38 1019.7
20260906082116 89 18 6.1 7.8 0.00 0.00 0.00 39 1019.7
20260906081117 90 4 4.3 7.0 0.00 0.00 0.00 38 1019.7
20260906080117 90 356 5.2 7.0 0.00 0.00 0.00 36 1019.5
20260906074116 89 356 5.2 7.0 0.00 0.00 0.00 37 1019.5
20260906073116 88 8 4.3 6.1 0.00 0.00 0.00 37 1019.4
20260906072117 88 3 5.2 6.1 0.00 0.00 0.00 37 1019.3
20260906071117 89 3 5.2 7.0 0.00 0.00 0.00 37 1019.3
20260906070116 87 10 5.2 7.0 0.00 0.00 0.00 40 1019.2
20260906064117 91 5 5.2 6.1 0.00 0.00 0.00 35 1018.7
20260906063116 91 1 5.2 5.2 0.00 0.00 0.00 36 1018.8
20260906062116 88 0 4.3 5.2 0.00 0.00 0.00 37 1018.8
20260906060118 86 1 5.2 5.2 0.00 0.00 0.00 41 1018.8
20260906055116 83 1 4.3 5.2 0.00 0.00 0.00 45 1018.9
20260906054116 81 0 5.2 5.2 0.00 0.00 0.00 48 1018.8
20260906053117 79 0 4.3 6.1 0.00 0.00 0.00 50 1018.9
20260906052116 77 357 5.2 6.1 0.00 0.00 0.00 50 1019.0
20260906044116 74 0 5.2 7.8 0.00 0.00 0.00 52 1018.7
20260906043117 74 358 5.2 6.1 0.00 0.00 0.00 54 1018.7
20260906042116 74 0 4.3 5.2 0.00 0.00 0.00 53 1018.8
20260906041116 74 359 5.2 5.2 0.00 0.00 0.00 54 1018.5
20260906035116 75 0 5.2 5.2 0.00 0.00 0.00 52 1018.5
20260906034116 75 0 5.2 5.2 0.00 0.00 0.00 52 1018.3
20260906033116 77 0 5.2 6.1 0.00 0.00 0.00 49 1018.4
20260906032116 77 357 5.2 6.1 0.00 0.00 0.00 46 1018.2
20260906031117 78 1 5.2 6.1 0.00 0.00 0.00 46 1018.3
20260906030116 78 0 5.2 6.1 0.00 0.00 0.00 48 1018.5
20260906025117 77 0 5.2 7.8 0.00 0.00 0.00 47 1018.2
20260906024116 75 2 5.2 7.0 0.00 0.00 0.00 50 1018.4
20260906023117 75 357 4.3 5.2 0.00 0.00 0.00 57 1018.3
20260906022116 76 358 5.2 5.2 0.00 0.00 0.00 55 1018.3
20260906021116 77 357 5.2 6.1 0.00 0.00 0.00 53 1018.2
20260906014116 77 358 5.2 6.1 0.00 0.00 0.00 51 1018.4
20260906012116 76 0 5.2 5.2 0.00 0.00 0.00 55 1018.4
20260906011116 77 356 5.2 6.1 0.00 0.00 0.00 54 1018.6
20260906005116 76 358 5.2 5.2 0.00 0.00 0.00 58 1018.5
20260906002117 76 0 5.2 5.2 0.00 0.00 0.00 62 1018.5
20260906001116 76 356 5.2 6.1 0.00 0.00 0.00 63 1018.6
20260906000116 76 358 5.2 5.2 0.00 0.00 0.00 63 1018.6
20260905235116 76 357 5.2 5.2 0.00 0.00 0.00 62 1018.9
20260905234116 76 358 5.2 6.1 0.00 0.00 0.00 64 1019.1
20260905233116 76 353 5.2 5.2 0.00 0.00 0.00 64 1018.9
20260905231116 77 358 5.2 5.2 0.00 0.00 0.00 64 1019.1
20260905230116 77 0 4.3 5.2 0.00 0.00 0.00 64 1019.1
20260905225116 78 356 4.3 5.2 0.00 0.00 0.00 63 1019.4
20260905224118 78 0 4.3 6.1 0.00 0.00 0.00 62 1019.4
20260905223117 78 353 5.2 5.2 0.00 0.00 0.00 62 1019.2
20260905222116 79 358 4.3 5.2 0.00 0.00 0.00 61 1019.2
20260905221116 80 358 5.2 6.1 0.00 0.00 0.00 59 1019.2
20260905220115 79 355 5.2 6.1 0.00 0.00 0.00 61 1019.1
20260905215116 79 355 5.2 6.1 0.00 0.00 0.00 62 1019.2
20260905214116 79 355 5.2 5.2 0.00 0.00 0.00 61 1019.1
20260905213116 80 357 4.3 6.1 0.00 0.00 0.00 59 1019.0
20260905212116 81 354 5.2 6.1 0.00 0.00 0.00 57 1018.9
20260905211116 81 356 5.2 6.1 0.00 0.00 0.00 59 1019.0
20260905205115 80 1 5.2 7.0 0.00 0.00 0.00 71 1019.1
20260905204116 80 359 5.2 5.2 0.00 0.00 0.00 73 1018.9
20260905203115 80 354 5.2 5.2 0.00 0.00 0.00 74 1019.2
20260905202116 80 0 5.2 5.2 0.00 0.00 0.00 74 1019.2
20260905201116 80 357 4.3 5.2 0.00 0.00 0.00 75 1019.3
20260905200116 80 355 5.2 5.2 0.00 0.00 0.00 75 1019.4
20260905195115 80 358 5.2 5.2 0.00 0.00 0.00 75 1019.4
20260905194116 81 0 5.2 5.2 0.00 0.00 0.00 74 1019.4
20260905193115 81 357 5.2 5.2 0.00 0.00 0.00 73 1019.4
20260905190116 82 354 5.2 5.2 0.00 0.00 0.00 73 1018.8
20260905185116 82 1 4.3 5.2 0.00 0.00 0.00 72 1018.8
20260905184115 82 0 4.3 5.2 0.00 0.00 0.00 71 1018.9
20260905183116 83 1 5.2 5.2 0.00 0.00 0.00 70 1018.9
20260905182116 83 1 4.3 5.2 0.00 0.00 0.00 70 1018.5
20260905181115 83 2 4.3 5.2 0.00 0.00 0.00 69 1018.7
20260905175116 83 1 4.3 5.2 0.00 0.00 0.00 69 1018.6
20260905173116 84 1 4.3 5.2 0.00 0.00 0.00 69 1018.8
20260905172115 84 8 5.2 6.1 0.00 0.00 0.00 69 1018.6
20260905171116 85 8 5.2 6.1 0.00 0.00 0.00 68 1018.7
20260905170115 85 7 5.2 6.1 0.00 0.00 0.00 66 1018.8
20260905165116 86 8 5.2 6.1 0.00 0.00 0.00 64 1018.9
20260905164116 86 3 5.2 7.0 0.00 0.00 0.00 63 1018.9
20260905163116 86 14 5.2 6.1 0.00 0.00 0.00 63 1018.8
20260905162116 86 19 5.2 6.1 0.00 0.00 0.00 64 1018.7
20260905161116 87 10 5.2 6.1 0.00 0.00 0.00 63 1018.5
20260905160115 87 6 5.2 6.1 0.00 0.00 0.00 62 1018.5
20260905155115 87 6 4.3 7.0 0.00 0.00 0.00 62 1018.8
20260905154116 87 16 5.2 6.1 0.00 0.00 0.00 60 1018.6
20260905153115 88 15 5.2 7.0 0.00 0.00 0.00 61 1018.7
20260905151115 89 12 5.2 7.8 0.00 0.00 0.00 56 1018.6
20260905145116 88 9 5.2 7.8 0.00 0.00 0.00 59 1018.5
20260905144115 88 10 5.2 8.7 0.00 0.00 0.00 56 1018.5
20260905143116 88 7 6.1 7.8 0.00 0.00 0.00 49 1018.3
20260905142115 88 19 6.1 8.7 0.00 0.00 0.00 49 1018.6
20260905141115 89 20 5.2 8.7 0.00 0.00 0.00 49 1018.4
20260905140116 90 21 5.2 8.7 0.00 0.00 0.00 49 1018.5
20260905135116 90 17 6.1 8.7 0.00 0.00 0.00 48 1018.4
20260905134116 90 1 5.2 8.7 0.00 0.00 0.00 47 1018.5
20260905132115 91 16 6.1 7.8 0.00 0.00 0.00 47 1018.3
20260905131115 89 9 5.2 7.8 0.00 0.00 0.00 48 1018.6
20260905130116 90 28 6.1 8.7 0.00 0.00 0.00 49 1018.5
20260905125115 90 2 6.1 7.8 0.00 0.00 0.00 49 1018.8
20260905124116 89 7 6.1 7.8 0.00 0.00 0.00 45 1018.7
20260905123116 89 18 6.1 8.7 0.00 0.00 0.00 44 1018.9
20260905122115 89 9 6.1 8.7 0.00 0.00 0.00 44 1019.0
20260905121116 89 19 6.1 7.8 0.00 0.00 0.00 43 1019.1
20260905120115 90 6 5.2 7.0 0.00 0.00 0.00 45 1019.1
20260905115115 91 25 6.1 8.7 0.00 0.00 0.00 46 1018.8
20260905114115 90 3 5.2 7.8 0.00 0.00 0.00 47 1019.0
20260905113115 88 20 6.1 8.7 0.00 0.00 0.00 50 1018.9
20260905112115 88 30 6.1 8.7 0.00 0.00 0.00 51 1019.2
20260905111115 88 11 5.2 7.8 0.00 0.00 0.00 51 1019.4
20260905110115 89 21 6.1 8.7 0.00 0.00 0.00 52 1019.3
20260905105116 88 17 4.3 10.4 0.00 0.00 0.00 55 1019.3
20260905103115 87 15 5.2 7.8 0.00 0.00 0.00 58 1019.4
20260905102115 87 2 5.2 7.8 0.00 0.00 0.00 49 1019.4
20260905101115 87 19 5.2 7.8 0.00 0.00 0.00 56 1019.5
20260905100115 86 15 6.1 8.7 0.00 0.00 0.00 57 1019.5